Location: Baia Mare
(47.6567°N, 23.5850°E)
Time: 12:03:41
(UTC+03:00)

ISS - Pass Details

Date: 23 May 2018
Orbit: 402 x 407 km, 51.6° (Epoch: 24 May)

Event Time Altitude Azimuth Distance (km) Brightness Sun altitude
Rises 23:08:41 0° 257° (WSW) 2,315 0.3 -15.3°
Reaches altitude 10° 23:10:46 10° 261° (W) 1,457 -0.7 -15.5°
Maximum altitude 23:14:00 60° 343° (NNW) 468 -3.3 -15.8°
Drops below altitude 10° 23:17:14 10° 64° (ENE) 1,459 -1.1 -16.1°
Sets 23:19:21 0° 68° (ENE) 2,320 -0.1 -16.3°
